Date,TemperatureHighF,TemperatureAvgF,TemperatureLowF,DewpointHighF,DewpointAvgF,DewpointLowF,HumidityHigh,HumidityAvg,HumidityLow,PressureMaxIn,PressureMinIn,WindSpeedMaxMPH,WindSpeedAvgMPH,GustSpeedMaxMPH,PrecipitationSumIn
2013-1-1,10.8,8.4,5.5,8.6,5.9,2.7,92,89,87,30.09,30.08,0,0,0,0.00
2013-1-2,22.6,15.3,10.1,16.8,11.7,7.3,92,85,78,30.16,30.07,8,1,13,0.00
2013-1-5,34.2,30.5,27.9,29.8,25.9,23.7,94,83,73,30.24,30.01,7,1,0,0.01
2013-1-6,34.8,32.8,30.7,32.5,29.8,26.5,95,89,79,30.25,29.89,9,2,13,0.00
2013-1-7,35.9,30.5,27.2,26.5,24.6,21.8,85,79,68,30.35,30.13,15,2,19,0.01
2013-1-8,35.7,28.4,20.0,28.0,23.9,18.0,94,84,72,30.23,30.14,8,0,0,0.01
2013-1-9,45.5,34.4,23.4,27.5,25.6,21.2,95,72,46,30.41,30.09,30,4,30,0.02
2013-1-10,43.7,30.7,19.7,32.6,25.8,18.0,95,83,57,30.57,30.17,7,0,0,0.08
2013-1-11,54.6,42.4,34.4,51.4,40.7,32.6,98,94,82,30.17,29.74,10,1,13,0.88
2013-1-12,60.2,48.6,42.8,51.1,45.8,42.0,98,91,69,29.91,29.79,9,1,12,0.01
2013-1-13,45.1,37.1,28.5,43.9,35.7,25.3,96,95,88,30.01,29.69,17,1,19,0.71
2013-1-14,28.3,22.7,15.9,25.4,18.2,13.7,92,83,73,30.43,30.01,16,3,23,0.00
2013-1-15,30.0,21.1,12.2,20.6,16.2,10.2,94,82,59,30.45,30.15,4,0,0,0.01
2013-1-16,37.7,24.2,18.5,23.1,18.4,15.2,94,81,41,30.15,29.79,15,2,16,0.00
2013-1-17,33.8,26.4,16.9,23.2,17.3,8.1,84,69,59,30.29,30.10,15,4,18,0.00
2013-1-18,34.3,23.3,10.7,24.0,15.7,8.1,93,74,54,30.42,29.96,16,2,20,0.00
2013-1-19,46.0,40.5,33.3,35.9,30.6,23.9,74,67,60,29.96,29.52,17,4,24,0.00
2013-1-20,43.3,21.3,14.5,35.4,10.5,4.7,83,63,45,30.16,29.51,31,7,33,0.00
2013-1-21,15.7,11.6,2.7,11.9,4.6,-4.8,88,73,62,30.14,29.95,15,3,18,0.00
2013-1-22,8.6,3.2,-2.8,1.2,-4.0,-10.5,84,70,56,30.30,30.11,14,3,18,0.00
2013-1-23,17.1,9.1,-1.6,10.9,4.0,-4.4,88,79,66,30.31,30.09,8,1,13,0.00
2013-1-24,19.0,11.4,5.9,10.1,4.3,-1.3,88,74,46,30.59,30.13,8,1,0,0.00
2013-1-25,20.8,16.4,10.6,16.2,12.2,4.7,91,83,75,30.52,30.02,7,0,0,0.00
2013-1-26,27.2,19.6,10.1,17.2,14.2,7.3,92,80,55,30.45,30.05,10,1,12,0.03
2013-1-27,29.0,18.5,5.4,27.5,13.8,2.6,94,83,63,30.48,30.14,9,1,13,0.00
2013-1-28,44.6,36.1,29.0,44.0,35.0,27.2,98,96,93,30.16,29.83,10,2,16,0.59
2013-1-29,56.2,44.1,31.8,54.5,43.4,30.5,99,97,93,30.01,29.43,15,1,18,0.75
2013-1-30,60.0,48.6,32.0,57.7,47.1,28.0,98,95,85,29.44,29.07,21,3,24,0.44
2013-1-31,32.0,21.4,15.3,28.2,15.4,10.4,90,78,63,29.86,29.17,25,7,31,0.00
2013-2-1,18.2,14.1,8.8,10.9,8.0,2.2,87,76,63,30.26,29.86,14,4,19,0.00
2013-2-2,21.5,14.4,1.0,17.7,10.5,-1.5,89,84,77,30.22,29.95,14,1,14,0.00
2013-2-3,20.3,10.2,-3.3,16.0,5.8,-5.8,90,82,67,30.02,29.86,13,2,19,0.00
2013-2-4,22.7,17.9,14.9,17.8,13.7,7.0,88,83,69,30.03,29.88,5,0,0,0.01
2013-2-6,26.2,23.0,20.6,17.9,16.7,15.1,82,77,70,30.30,30.24,1,0,0,0.02
2013-2-7,38.5,29.5,24.0,28.7,23.1,18.0,92,77,66,30.28,29.87,8,1,12,0.01
2013-2-8,28.3,26.7,24.3,26.8,24.4,20.2,95,91,84,30.12,29.78,14,2,15,0.00
2013-2-9,32.8,21.3,-0.3,19.6,14.0,-3.0,94,75,50,30.45,30.29,7,1,0,0.27
2013-2-10,38.1,27.6,14.0,35.6,23.3,12.0,95,84,63,30.30,29.68,8,1,0,0.26
2013-2-11,43.7,36.6,31.2,42.3,31.5,26.2,96,82,70,29.83,29.52,23,6,25,0.08
2013-2-12,31.3,29.7,27.0,26.7,23.7,21.4,83,78,73,30.02,29.82,17,4,21,0.00
2013-2-13,39.4,29.7,25.6,26.5,23.5,21.3,93,78,56,29.91,29.72,9,1,0,0.00
2013-2-14,35.6,28.2,24.4,33.2,26.7,22.9,96,94,89,29.76,29.69,5,0,0,0.01
2013-2-15,27.6,25.4,21.6,21.7,15.9,13.3,83,67,56,30.10,29.95,14,4,17,0.00
2013-2-16,24.2,18.3,11.4,19.6,13.8,8.8,92,83,69,30.09,29.97,10,1,15,0.00
2013-2-17,21.5,13.1,4.0,12.9,6.7,1.3,93,77,53,30.22,30.05,15,1,15,0.01
2013-2-18,43.6,28.2,6.8,35.1,20.8,4.0,90,74,59,30.22,29.59,11,2,14,0.00
2013-2-19,42.8,28.3,17.3,40.0,23.8,10.7,94,83,70,29.89,29.38,21,6,23,0.20
2013-2-20,21.3,18.7,14.9,15.5,11.9,8.5,86,75,66,30.24,29.89,18,5,22,0.00
2013-2-21,26.2,20.6,18.4,18.3,14.5,12.2,88,77,62,30.39,30.23,9,1,0,0.00
2013-2-22,32.6,26.5,21.4,31.6,24.3,17.9,97,92,85,30.27,29.88,11,1,0,0.01
2013-2-23,32.3,29.4,23.7,30.8,23.6,19.8,94,79,66,29.90,29.84,10,2,12,0.00
2013-2-24,34.8,25.7,14.2,26.8,21.3,11.9,93,84,68,30.14,29.88,13,1,13,0.01
2013-2-25,41.8,25.0,7.6,26.7,18.2,4.8,95,77,50,30.24,30.10,6,0,0,0.05
2013-2-26,35.6,30.8,24.5,31.9,26.6,20.6,97,85,70,30.13,29.50,16,1,16,0.14
2013-2-27,34.8,33.3,32.6,33.6,32.3,31.6,97,96,93,29.55,29.44,7,0,0,0.31
2013-2-28,35.8,32.9,32.2,32.0,31.7,31.2,97,95,85,29.72,29.52,12,1,13,0.22
2013-3-1,25.4,24.5,23.8,21.2,20.5,19.6,87,84,82,30.10,30.04,7,1,13,0.00
2013-3-2,26.1,23.8,21.7,21.3,19.5,17.6,88,83,77,30.08,30.04,9,1,0,0.00
2013-3-3,28.0,21.1,14.7,17.9,15.6,11.6,90,79,64,30.05,29.99,12,2,14,0.01
2013-3-4,34.9,21.6,9.1,18.4,14.0,6.8,93,74,44,30.15,30.05,7,1,0,0.06
2013-3-5,37.7,26.3,14.5,26.0,20.5,12.2,95,79,60,30.14,29.84,11,1,12,0.03
2013-3-6,41.1,32.7,25.4,30.3,27.4,22.0,89,81,64,30.20,29.85,5,1,0,0.00
2013-3-7,33.9,30.8,21.2,30.6,26.1,18.3,93,83,66,30.38,30.18,7,1,0,0.00
2013-3-8,44.9,34.5,21.1,28.5,25.8,18.4,93,72,50,30.49,30.38,5,0,0,0.00
2013-3-9,43.7,33.4,21.6,32.0,27.4,19.9,96,80,56,30.41,30.03,8,1,0,0.00
2013-3-10,59.2,48.3,33.3,47.0,38.2,30.4,90,69,53,30.03,29.76,9,1,18,0.00
2013-3-11,54.3,48.2,36.7,48.0,43.8,32.6,96,85,63,29.79,29.41,14,2,19,0.38
2013-3-12,36.7,33.6,29.1,33.0,29.2,24.9,89,84,72,29.89,29.63,14,4,20,0.01
2013-3-13,27.4,26.8,26.1,16.5,15.7,14.3,63,62,60,30.17,30.15,16,6,17,0.00
2013-3-14,38.7,28.9,19.7,22.5,18.1,13.5,83,65,43,30.25,30.07,12,2,14,0.00
2013-3-15,37.3,33.5,29.4,33.4,28.5,17.8,96,82,56,30.06,29.83,12,2,16,0.04
2013-3-16,32.6,28.3,22.8,31.6,25.2,20.1,96,88,78,30.02,29.76,7,0,0,0.11
2013-3-17,32.0,24.9,19.2,23.8,17.2,12.1,90,73,50,30.26,30.02,9,1,12,0.07
2013-3-18,34.2,28.2,20.0,33.1,25.1,14.5,96,88,79,30.19,29.55,10,2,16,0.07
2013-3-19,33.8,25.9,22.7,31.2,20.6,16.2,90,80,71,29.91,29.59,19,6,22,0.00
2013-3-20,27.5,23.1,16.6,18.7,15.0,11.5,80,71,58,29.93,29.87,16,4,19,0.00
2013-3-21,30.4,23.1,14.8,25.7,18.3,10.7,89,82,71,29.92,29.84,15,4,19,0.01
2013-3-22,37.7,29.4,24.4,24.7,20.9,17.5,81,71,55,30.01,29.91,12,3,19,0.00
2013-3-23,36.7,28.6,20.1,26.5,22.7,18.2,94,79,62,30.10,30.00,9,0,0,0.00
2013-3-24,36.9,28.5,20.3,28.2,23.4,18.3,95,82,58,30.06,29.65,8,1,0,0.00
2013-3-25,40.1,34.1,30.4,29.3,26.8,24.3,81,75,64,29.89,29.57,9,2,12,0.00
2013-3-26,41.6,35.3,31.7,32.1,29.6,27.1,88,80,63,30.09,29.89,9,1,13,0.01
2013-3-27,46.4,37.3,28.7,30.5,27.0,24.8,86,67,48,30.17,30.09,15,4,18,0.02
2013-3-28,50.2,38.8,29.4,31.4,26.4,22.7,82,62,38,30.24,30.17,11,2,15,0.00
2013-3-29,52.1,38.5,24.9,27.0,23.8,20.7,88,59,32,30.26,30.17,8,1,0,0.00
2013-3-30,54.5,35.7,22.4,28.3,23.4,18.0,95,68,26,30.20,30.04,12,1,13,0.00
2013-4-3,40.7,34.7,27.1,21.6,17.3,12.8,76,51,33,30.39,30.35,7,1,0,0.00
2013-4-4,55.2,39.7,24.7,23.0,19.2,15.8,83,48,24,30.35,29.93,14,2,17,0.00
2013-4-5,46.2,39.7,29.6,31.2,23.7,18.3,82,55,33,30.19,29.91,15,1,17,0.00
2013-4-6,48.9,38.2,27.0,27.6,22.5,16.6,84,55,35,30.23,29.77,17,2,17,0.00
2013-4-7,56.7,52.0,45.5,46.3,37.2,26.8,76,58,42,29.77,29.57,21,5,24,0.00
2013-4-8,63.5,51.4,45.9,55.4,46.8,42.8,96,85,61,29.94,29.67,23,4,26,0.16
2013-4-9,49.6,44.5,39.8,45.0,42.2,38.4,97,92,77,30.06,29.86,14,1,14,0.64
2013-4-10,44.3,40.7,37.3,43.2,39.6,36.1,97,96,93,30.02,29.81,12,1,20,0.29
2013-4-11,37.9,36.5,35.3,36.9,35.3,34.1,97,95,93,29.96,29.61,11,1,15,0.74
2013-4-12,41.2,37.5,34.1,39.3,35.1,33.1,97,91,77,29.74,29.50,12,2,16,0.30
2013-4-13,41.2,37.9,35.5,37.6,31.4,27.8,93,78,63,29.96,29.73,18,5,20,0.01
2013-4-14,47.7,38.4,29.5,39.0,32.2,26.8,91,78,63,30.10,29.92,9,1,0,0.01
2013-4-15,67.7,53.6,35.7,55.4,45.6,33.6,94,76,58,29.94,29.85,15,1,16,0.03
2013-4-16,60.7,52.7,43.8,54.8,43.6,34.3,95,74,42,30.19,29.82,13,2,17,0.01
2013-4-17,58.1,46.3,37.8,44.1,36.5,31.3,95,70,45,30.31,30.00,10,1,0,0.71
2013-4-18,69.9,50.5,43.1,63.4,48.0,41.8,96,92,80,30.00,29.63,11,2,15,0.04
2013-4-19,40.9,39.1,34.5,35.8,31.4,29.7,88,74,66,29.71,29.39,20,8,25,0.38
2013-4-20,37.3,32.8,27.1,30.9,22.7,16.4,89,67,53,30.43,29.70,21,5,21,0.01
2013-4-21,48.3,35.5,22.2,30.2,25.1,20.7,96,69,42,30.62,30.43,8,1,0,0.00
2013-4-22,61.4,45.7,29.3,37.7,29.8,22.8,96,59,26,30.46,30.17,7,1,0,0.00
2013-4-23,68.9,54.2,37.4,53.4,42.5,33.6,96,68,42,30.17,29.76,13,2,18,0.29
2013-4-24,53.9,39.5,34.1,52.9,36.7,28.4,97,90,70,30.10,29.71,11,2,15,0.52
2013-4-25,49.7,40.2,31.2,40.5,32.0,27.7,92,74,47,30.32,30.08,18,3,18,0.09
2013-4-26,58.7,44.3,28.3,39.0,33.0,27.0,97,68,39,30.44,30.31,13,1,16,0.00
2013-4-27,68.3,52.7,35.2,42.7,37.0,30.5,97,61,25,30.34,30.08,11,1,0,0.00
2013-4-28,57.7,51.6,45.6,52.5,46.2,35.3,97,83,62,30.07,29.80,8,0,0,0.24
2013-4-29,68.7,58.7,52.2,55.7,53.1,51.7,98,83,57,29.90,29.80,7,1,0,0.01
2013-4-30,71.3,60.8,52.8,58.2,54.6,50.6,95,81,60,30.03,29.87,11,1,18,0.28
2013-5-1,80.4,65.2,49.0,60.2,54.0,48.1,98,71,42,30.19,30.02,8,1,0,0.00
2013-5-2,77.7,65.1,50.6,57.4,51.1,46.6,91,63,39,30.20,30.09,8,1,0,0.00
2013-5-3,77.2,65.6,54.3,57.4,46.2,34.3,68,52,23,30.09,30.01,9,1,12,0.00
2013-5-4,69.3,61.2,52.2,49.1,44.2,36.9,82,56,32,30.08,30.02,11,1,12,0.00
2013-5-5,71.9,59.8,49.3,46.5,41.9,29.4,85,56,23,30.07,29.99,10,1,12,0.00
2013-5-6,74.3,67.6,52.2,52.5,48.1,42.9,81,51,38,30.02,29.94,8,1,0,0.00
2013-5-7,75.8,61.9,46.5,55.1,49.6,42.3,89,67,40,30.03,29.95,9,1,12,0.00
2013-5-8,80.0,64.6,50.1,55.4,50.6,46.0,95,65,31,29.99,29.88,8,0,0,0.00
2013-5-9,78.9,65.5,48.3,56.7,50.9,45.8,98,64,34,29.92,29.84,8,1,0,0.00
2013-5-10,65.3,54.9,41.1,61.7,51.1,38.6,97,88,57,29.86,29.69,9,1,0,0.24
2013-5-11,61.2,46.4,37.5,48.4,41.3,32.8,96,84,57,29.86,29.69,15,2,19,0.03
2013-5-12,47.4,39.9,31.6,34.1,30.3,24.9,85,69,52,30.07,29.83,18,5,22,0.00
2013-5-13,53.2,40.4,27.3,33.9,26.8,23.7,88,62,33,30.16,30.07,12,2,14,0.00
2013-5-14,74.3,54.7,39.6,52.7,40.8,32.5,86,61,42,30.09,29.70,9,1,17,0.00
2013-5-15,79.3,67.6,51.3,59.8,51.1,45.5,97,60,32,29.74,29.54,19,3,19,0.00
2013-5-16,79.4,64.5,46.2,53.3,47.0,40.1,97,58,29,29.99,29.73,11,1,12,0.00
2013-5-17,71.6,58.4,44.4,50.5,44.1,39.8,86,61,39,30.11,29.99,7,0,0,0.00
2013-5-18,79.3,65.1,53.7,52.1,46.8,43.6,76,54,32,30.11,29.99,10,0,0,0.00
2013-5-19,84.6,68.7,51.4,66.3,57.1,46.3,93,68,46,30.01,29.83,10,0,0,0.00
2013-5-20,88.4,72.5,60.3,72.8,64.4,58.9,97,78,44,29.88,29.70,12,1,17,0.00
2013-5-21,82.5,71.7,63.6,68.2,64.0,61.0,96,79,50,29.77,29.66,10,1,12,0.00
2013-5-22,79.1,67.7,62.4,66.4,62.6,59.8,94,84,55,29.69,29.56,14,1,16,0.05
2013-5-23,62.9,52.0,41.5,60.2,50.1,39.1,97,93,89,30.11,29.62,7,0,0,0.27
2013-5-24,55.2,45.1,36.5,40.4,37.2,32.7,95,75,49,30.34,30.11,9,1,12,0.01
2013-5-25,64.2,49.0,34.4,44.9,38.0,33.3,97,70,40,30.38,30.26,7,0,0,0.00
2013-5-26,67.8,52.3,34.5,45.1,38.2,33.2,98,64,33,30.33,30.20,7,0,0,0.00
2013-5-27,61.7,50.0,39.2,49.6,43.0,33.6,97,80,39,30.25,29.99,6,0,0,0.28
2013-5-28,70.5,59.4,50.5,69.4,58.7,49.4,99,97,92,29.99,29.75,5,0,0,1.14
2013-5-29,80.8,71.1,61.8,68.8,65.4,60.3,97,83,54,29.94,29.68,11,1,15,0.04
2013-5-30,84.8,70.1,59.5,73.9,66.2,58.6,99,89,59,30.01,29.92,12,0,14,0.19
2013-5-31,79.8,71.5,65.7,70.6,67.0,64.5,97,86,68,29.95,29.80,12,1,15,0.08
2013-6-1,67.2,66.4,64.5,63.4,62.6,61.5,90,87,86,29.67,29.63,0,0,0,0.24
2013-6-2,68.7,62.8,52.0,63.9,56.6,44.0,93,80,65,29.93,29.59,12,2,15,0.01
2013-6-3,66.5,54.1,39.4,48.5,42.6,37.5,95,68,43,30.05,29.94,8,1,0,0.00
2013-6-4,71.3,57.7,44.5,53.7,45.8,35.2,96,68,43,30.17,30.05,5,0,0,0.00
2013-6-5,72.0,59.7,47.6,52.0,44.8,36.7,83,59,37,30.15,29.95,8,0,0,0.00
2013-6-6,66.5,59.4,54.2,56.5,50.3,43.9,86,72,64,29.97,29.82,4,0,0,0.00
2013-6-7,60.4,55.1,49.2,54.5,51.4,47.5,96,87,79,29.88,29.83,6,0,0,0.00
2013-6-8,71.6,61.4,54.7,57.9,53.6,50.9,90,77,52,30.03,29.87,5,0,0,0.00
2013-6-9,73.9,64.5,53.6,62.0,55.7,51.9,96,75,56,30.08,29.91,8,0,12,0.00
2013-6-10,70.6,64.5,59.1,68.4,62.5,52.9,98,93,64,29.92,29.68,5,0,0,0.93
2013-6-11,65.1,63.6,62.4,64.2,62.7,61.5,98,97,97,29.81,29.72,6,0,0,0.06
2013-6-13,76.2,70.8,63.3,61.1,58.8,56.8,86,67,53,29.87,29.75,5,0,0,0.33
2013-6-14,75.2,65.0,55.6,60.7,55.1,51.1,91,72,45,30.03,29.87,9,0,0,0.00
2013-6-15,76.8,65.0,52.8,63.5,58.4,51.4,98,81,57,30.04,29.87,9,0,0,0.00
2013-6-16,79.8,69.8,62.4,67.2,61.6,53.6,97,77,43,29.87,29.71,10,2,16,0.29
2013-6-17,84.8,69.1,56.3,65.3,59.2,54.3,95,73,40,29.88,29.78,8,0,0,0.00
2013-6-18,71.1,62.0,52.1,58.4,52.3,43.1,96,73,44,30.04,29.84,7,0,0,0.04
2013-6-19,75.8,60.3,43.4,56.0,48.5,41.5,96,68,41,30.14,30.03,5,0,0,0.00
2013-6-20,80.5,65.9,49.5,63.3,54.6,48.1,98,70,41,30.18,30.09,7,0,0,0.00
2013-6-21,84.3,69.9,54.7,68.9,60.7,53.0,97,75,50,30.17,30.00,8,0,0,0.00
2013-6-22,85.8,74.4,64.4,74.1,67.3,60.1,92,79,61,30.05,29.92,8,1,0,0.00
2013-6-23,88.2,77.7,67.1,72.8,68.6,65.6,97,76,51,30.00,29.90,8,1,0,0.00
2013-6-24,86.3,75.6,65.7,72.9,68.4,63.7,96,79,59,30.00,29.85,9,1,0,0.24
2013-6-25,80.5,70.3,66.1,74.4,67.2,64.1,97,90,75,29.92,29.77,10,1,12,0.21
2013-6-27,66.4,65.7,64.9,65.5,64.9,64.0,98,97,97,29.65,29.57,2,0,0,1.40
2013-6-28,77.5,66.6,63.2,67.6,64.4,60.5,98,93,71,29.59,29.47,7,0,0,0.39
2013-6-29,75.7,67.1,62.2,68.0,62.7,58.2,98,86,68,29.69,29.49,5,0,0,0.00
2013-6-30,78.2,68.2,59.4,64.2,59.9,47.5,95,76,56,29.91,29.69,5,0,0,0.00
2013-7-1,67.2,61.4,56.7,60.4,55.3,46.5,96,81,62,30.03,29.90,3,0,0,0.26
2013-7-2,74.8,64.4,55.6,65.8,60.1,54.5,97,86,69,30.03,29.98,5,0,0,0.01
2013-7-3,81.5,69.1,58.7,70.4,63.8,57.3,98,85,60,30.05,30.00,7,0,0,0.00
2013-7-4,78.2,72.4,66.7,68.2,65.9,62.8,97,81,62,30.07,30.02,10,0,0,0.00
2013-7-5,83.0,71.3,65.5,69.0,65.6,60.6,95,84,50,30.06,29.99,3,0,0,0.00
2013-7-6,83.2,72.9,65.6,72.5,68.3,64.6,98,86,64,30.05,29.93,4,0,0,0.06
2013-7-7,80.8,73.4,69.7,72.4,69.1,66.8,97,87,64,29.97,29.90,6,1,0,0.01
2013-7-8,82.9,72.6,67.7,76.2,69.6,65.9,98,91,79,29.97,29.90,9,0,14,0.46
2013-7-9,87.5,75.0,69.2,74.9,70.9,68.6,99,88,61,29.93,29.81,10,0,14,0.22
2013-7-10,86.5,76.6,62.4,76.0,70.3,58.6,98,82,59,29.89,29.70,11,1,14,0.15
2013-7-11,77.7,66.8,57.3,62.5,58.2,55.6,95,75,50,30.03,29.89,8,0,0,0.00
2013-7-12,81.0,66.7,53.2,65.0,59.1,52.1,98,79,47,30.12,30.02,5,0,0,0.00
2013-7-13,82.9,70.9,58.2,66.9,61.4,57.0,98,75,45,30.17,30.10,6,0,0,0.00
2013-7-14,87.1,74.7,63.4,74.9,68.5,62.2,99,82,58,30.21,30.16,7,0,0,0.00
2013-7-15,88.9,77.1,68.4,79.3,73.0,67.5,98,88,68,30.24,30.17,4,0,0,0.06
2013-7-16,90.0,80.6,72.8,79.8,75.3,72.2,99,85,63,30.25,30.17,7,0,0,0.01
2013-7-17,90.8,81.1,71.1,78.9,75.0,70.0,98,83,63,30.22,30.08,7,1,0,0.00
2013-7-18,90.6,80.1,71.1,77.7,73.5,69.7,97,81,56,30.10,29.89,9,0,13,0.00
2013-7-19,90.8,80.4,72.0,76.5,73.8,69.4,98,81,55,29.90,29.64,17,2,19,0.69
2013-7-20,84.2,74.5,67.1,70.9,66.3,60.1,97,78,47,29.87,29.66,6,1,17,0.03
2013-7-21,80.6,68.6,60.1,66.4,60.7,55.5,95,77,58,29.96,29.86,5,0,0,0.00
2013-7-22,80.6,76.3,67.2,69.7,66.7,63.3,93,73,58,29.82,29.71,5,0,0,0.02
2013-7-23,79.8,69.2,59.8,73.8,64.9,52.1,98,87,67,29.83,29.62,10,0,0,0.24
2013-7-24,71.8,62.7,54.5,58.0,53.3,49.5,88,72,52,30.01,29.83,6,0,0,0.00
2013-7-25,76.4,62.5,47.9,61.6,53.5,46.8,98,75,46,30.08,30.00,5,0,0,0.00
2013-7-26,78.0,66.6,55.5,62.0,58.4,54.2,97,77,53,30.07,29.86,6,0,0,0.00
2013-7-27,71.7,64.7,54.4,67.2,61.7,51.6,95,90,82,29.87,29.68,7,1,0,0.78
2013-7-28,65.2,56.2,49.7,58.1,52.8,48.3,97,89,71,29.92,29.78,7,1,0,0.20
2013-7-29,68.2,62.0,55.9,59.7,56.1,54.2,96,81,70,30.14,29.97,8,1,0,0.01
2013-7-30,76.5,63.3,49.9,62.9,56.8,49.1,99,81,52,30.20,30.08,5,0,0,0.01
2013-7-31,72.5,65.8,61.0,68.2,63.9,59.4,98,94,82,30.09,29.83,6,0,0,0.58
2013-8-1,76.8,66.5,60.9,65.4,61.4,55.1,97,85,53,29.87,29.82,10,1,15,0.02
2013-8-2,73.0,63.4,53.1,63.8,59.0,51.8,98,86,67,29.90,29.80,11,1,12,0.00
2013-8-3,75.8,67.7,57.9,63.4,59.1,54.4,98,76,51,30.01,29.85,7,1,0,0.00
2013-8-4,72.7,61.5,52.6,59.2,54.9,51.4,97,80,53,30.12,30.01,7,0,0,0.00
2013-8-5,70.6,62.1,53.7,60.4,55.4,50.8,93,80,53,30.09,29.93,7,0,0,0.00
2013-8-6,76.8,66.3,61.6,68.8,63.3,57.8,97,91,72,29.93,29.84,5,0,0,0.22
2013-8-7,82.2,70.4,61.9,72.9,66.5,61.3,99,88,67,29.86,29.75,12,1,12,0.04
2013-8-8,77.1,68.8,63.1,69.1,63.7,59.5,96,85,63,29.97,29.84,5,0,0,0.00
2013-8-9,78.8,67.5,55.5,62.9,58.8,54.1,97,76,51,29.96,29.89,6,0,0,0.00
2013-8-10,75.6,66.5,58.4,62.5,59.7,56.8,97,80,56,30.09,29.96,5,0,0,0.00
2013-8-11,76.4,66.9,58.8,64.7,59.9,55.7,94,79,57,30.08,29.99,7,0,0,0.00
2013-8-12,69.7,65.4,63.1,67.7,63.6,61.0,97,94,89,30.01,29.80,8,0,0,0.67
2013-8-13,66.7,60.2,51.1,63.6,53.6,46.7,98,80,54,30.01,29.78,12,1,14,0.01
2013-8-14,69.2,57.4,48.3,57.3,50.5,45.8,93,79,53,30.13,30.01,10,0,0,0.00
2013-8-15,72.4,59.3,46.6,58.7,51.9,45.4,98,79,50,30.14,30.06,7,0,0,0.00
2013-8-16,77.7,63.4,49.9,62.9,55.9,49.1,98,79,48,30.17,30.08,5,0,0,0.00
2013-8-17,78.3,64.6,51.0,62.5,56.4,50.2,98,78,43,30.23,30.15,6,0,0,0.00
2013-8-18,81.5,66.2,53.2,67.0,58.6,52.4,99,79,47,30.19,30.06,4,0,0,0.00
2013-8-19,80.5,67.6,54.8,64.7,58.3,49.3,99,76,36,30.08,29.99,7,0,0,0.00
2013-8-20,84.0,69.7,56.3,69.3,62.6,55.5,99,81,53,30.09,30.02,6,0,0,0.00
2013-8-21,83.9,72.2,60.7,72.7,66.2,59.8,98,83,63,30.08,29.94,6,0,0,0.00
2013-8-22,80.6,73.5,66.8,70.1,67.4,65.2,96,82,66,29.99,29.88,7,1,0,0.00
2013-8-23,80.8,67.6,54.6,65.9,58.0,51.8,98,75,40,30.17,29.99,7,0,0,0.00
2013-8-24,81.7,66.4,52.5,65.5,57.8,51.7,99,77,44,30.27,30.16,5,0,0,0.00
2013-8-25,85.2,70.0,54.0,67.5,61.2,52.9,98,77,49,30.26,30.10,0,0,0,0.00
2013-8-26,85.4,76.3,69.4,74.1,67.9,62.1,96,76,63,30.11,29.91,9,0,0,0.04
2013-8-27,82.2,74.3,69.5,76.2,72.1,68.3,98,93,80,29.93,29.77,10,0,12,0.60
2013-8-28,81.6,75.1,66.9,74.6,72.3,65.7,98,91,76,29.95,29.71,11,0,20,0.39
2013-8-29,87.3,73.3,62.7,74.9,68.0,62.1,99,85,53,30.03,29.94,3,0,0,0.01
2013-8-30,85.2,74.2,63.5,72.5,68.7,62.7,99,84,61,29.95,29.68,9,1,12,0.84
2013-8-31,78.9,72.3,66.3,71.6,68.7,64.5,98,89,70,29.79,29.69,4,0,0,0.01
2013-9-1,80.9,70.7,65.4,73.1,67.3,63.3,97,89,74,29.80,29.66,3,0,0,0.00
2013-9-2,73.1,66.5,57.2,69.8,61.7,53.2,98,85,65,29.87,29.67,11,2,18,0.56
2013-9-3,58.5,56.8,56.3,54.3,52.7,51.8,90,86,84,29.95,29.86,7,1,0,0.00
2013-9-13,59.6,53.2,42.1,50.2,45.3,40.4,94,75,58,30.11,30.01,8,1,12,0.00
2013-9-14,67.5,51.0,37.5,52.3,43.3,36.5,98,78,44,30.17,30.06,6,0,0,0.00
2013-9-15,61.9,53.3,46.4,55.6,50.5,45.3,98,91,71,30.10,30.03,5,0,0,0.10
2013-9-16,62.9,55.8,51.0,54.0,51.3,47.2,98,86,59,30.30,30.09,5,0,0,0.00
2013-9-18,74.4,64.5,57.8,58.3,55.9,53.6,93,76,49,30.03,30.01,4,0,0,0.00
2013-9-19,77.8,66.1,55.1,69.6,62.6,54.1,99,89,75,30.02,29.87,6,0,0,0.00
2013-9-20,78.7,70.3,67.0,71.1,67.7,65.7,97,92,74,29.88,29.67,13,1,13,0.13
2013-9-22,57.4,48.8,42.3,46.1,43.6,40.6,95,83,63,30.06,29.98,4,0,0,0.00
2013-9-23,60.9,47.8,36.8,49.9,42.5,35.8,98,84,59,30.18,30.06,5,0,0,0.00
2013-9-28,76.0,66.8,57.7,61.8,57.4,54.6,98,74,50,30.16,29.97,6,0,0,0.00
2013-9-29,61.9,59.1,56.0,61.0,57.1,54.1,98,93,82,29.99,29.92,5,0,0,0.10
2013-9-30,70.2,59.9,51.3,58.3,55.4,50.1,98,87,56,29.98,29.88,8,0,0,0.02
2013-10-1,71.2,58.8,47.4,64.9,56.3,46.6,99,92,75,29.98,29.89,10,1,13,0.00
2013-10-2,77.0,64.5,51.4,60.8,55.2,45.4,98,76,34,30.04,29.91,6,0,0,0.01
2013-10-3,77.2,63.2,49.9,68.5,59.6,49.1,99,89,73,30.03,29.88,9,0,0,0.00
2013-10-4,77.7,68.7,61.0,69.6,65.5,59.8,98,90,75,29.98,29.89,7,0,0,0.00
2013-10-5,71.6,66.8,63.3,68.9,65.5,62.4,99,96,89,29.99,29.81,2,0,0,0.25
2013-10-6,68.8,64.4,53.9,67.3,63.0,53.0,98,95,87,29.81,29.56,15,0,17,0.36
2013-10-7,57.9,50.6,44.4,53.1,47.2,42.0,98,88,68,30.08,29.63,10,2,18,0.02
2013-10-8,66.7,50.3,39.2,51.3,43.7,38.4,99,81,49,30.27,30.08,5,0,0,0.00
2013-10-9,70.5,52.1,39.0,56.6,46.0,38.1,99,82,50,30.30,30.19,5,0,0,0.00
2013-10-10,70.7,53.0,40.1,55.6,46.2,39.3,99,81,45,30.21,30.10,4,0,0,0.01
2013-10-11,71.8,52.0,37.4,54.7,45.3,36.6,99,82,43,30.13,30.05,5,0,0,0.00
2013-10-12,75.5,58.9,45.2,62.4,53.7,44.3,99,85,39,30.08,30.00,5,0,0,0.00
2013-10-13,66.5,57.4,43.6,58.7,47.9,40.1,98,74,39,30.31,30.05,9,1,0,0.00
2013-10-14,55.1,44.9,41.1,45.9,42.4,39.8,98,91,71,30.38,30.24,1,0,0,0.00
2013-10-15,63.2,51.8,38.6,60.0,49.6,37.8,99,92,78,30.25,29.80,7,0,0,0.12
2013-10-16,61.5,54.9,50.3,60.4,51.0,45.3,98,87,69,29.86,29.76,12,2,13,0.00
2013-10-17,52.1,49.5,45.4,49.7,47.5,43.8,96,93,88,29.86,29.71,9,1,0,0.31
2013-10-18,61.9,49.9,42.0,47.4,43.2,40.3,97,80,47,29.88,29.80,10,1,12,0.00
2013-10-19,47.8,43.8,40.2,43.2,40.8,37.3,96,89,76,29.86,29.70,11,1,13,0.23
2013-10-20,56.8,46.8,36.7,46.4,40.9,35.4,96,81,58,29.89,29.80,10,1,13,0.01
2013-10-21,54.4,49.6,40.5,49.1,43.2,34.6,91,79,68,29.82,29.75,9,2,18,0.03
2013-10-22,46.4,38.7,32.1,36.5,31.4,28.4,87,75,55,29.88,29.79,13,1,18,0.00
2013-10-23,46.9,37.8,29.5,35.2,30.9,25.4,97,78,45,29.91,29.79,10,1,13,0.00
2013-10-24,46.0,36.7,30.5,33.7,31.1,28.7,95,81,53,30.15,29.90,14,2,16,0.01
2013-10-25,45.7,37.2,30.3,35.4,31.1,28.6,95,80,58,30.31,30.08,13,1,14,0.00
2013-10-26,50.0,42.0,35.2,39.1,33.0,29.1,95,71,58,30.08,29.74,12,3,18,0.08
2013-10-27,51.1,38.6,30.2,37.8,33.1,28.8,96,82,55,30.05,29.96,8,0,0,0.00
2013-10-28,49.4,38.8,30.8,40.2,34.0,29.2,97,84,68,30.39,30.02,5,0,0,0.01
2013-10-29,47.7,41.2,35.8,36.7,33.8,31.4,88,75,58,30.42,30.23,6,0,0,0.00
2013-10-30,63.0,45.3,30.0,49.2,39.1,28.9,98,81,53,30.23,29.93,5,0,0,0.10
2013-10-31,60.9,58.1,51.0,60.2,57.2,49.6,98,97,95,29.95,29.11,14,1,14,1.25
2013-11-1,60.1,49.2,45.2,59.2,44.3,39.1,97,83,71,29.62,29.05,20,4,24,0.06
2013-11-2,45.1,42.2,31.6,44.1,40.5,30.1,97,94,87,30.08,29.61,7,0,0,0.23
2013-11-3,42.8,34.4,28.2,36.8,31.1,27.3,98,88,67,30.44,30.08,5,0,0,0.00
2013-11-4,48.0,39.2,29.9,36.8,31.7,28.3,97,76,49,30.47,30.29,8,1,0,0.01
2013-11-5,54.7,48.3,39.7,47.5,43.2,35.3,90,83,71,30.33,30.14,5,0,0,0.00
2013-11-6,55.0,51.0,41.4,52.3,47.0,38.9,95,86,68,30.14,29.74,20,2,20,0.23
2013-11-7,42.8,38.8,33.9,39.2,31.4,26.1,92,76,54,30.10,29.94,15,3,15,0.01
2013-11-8,43.3,34.1,27.7,31.9,27.9,25.2,95,79,52,30.26,30.09,12,1,14,0.00
2013-11-9,42.5,37.4,32.4,33.1,31.4,30.1,93,79,68,30.17,29.92,7,1,0,0.00
2013-11-10,47.1,39.6,32.4,34.9,31.1,28.4,87,72,58,30.24,30.10,15,3,17,0.00
2013-11-11,41.4,35.2,27.0,38.5,30.8,21.1,94,84,75,30.29,30.00,9,2,0,0.17
2013-11-12,32.9,27.1,22.5,23.1,19.5,16.8,85,73,58,30.53,30.29,17,2,17,0.05
2013-11-13,40.4,29.3,17.4,24.9,17.9,11.9,93,66,33,30.53,30.14,18,3,18,0.00
2013-11-14,51.0,38.1,29.0,29.5,22.6,18.3,70,54,41,30.14,29.95,15,2,15,0.00
2013-11-15,51.9,41.4,33.2,32.2,28.0,23.9,83,60,43,30.04,29.96,9,1,0,0.00
2013-11-16,55.8,42.8,29.0,52.9,39.6,27.2,97,89,82,30.09,29.77,8,1,13,0.00
2013-11-17,60.9,56.6,45.8,59.0,54.0,40.5,96,91,72,29.77,29.17,28,4,28,0.41
2013-11-18,46.3,39.2,33.7,41.6,31.3,24.0,84,73,68,30.10,29.40,24,7,27,0.00
2013-11-19,41.1,32.9,25.2,25.9,23.8,21.6,92,70,48,30.39,30.09,11,1,0,0.00
2013-11-20,45.2,32.6,22.3,34.2,26.1,20.6,97,79,47,30.43,30.24,8,0,0,0.00
2013-11-21,47.2,42.4,37.7,42.9,38.0,29.1,97,85,67,30.27,30.15,7,0,0,0.27
2013-11-22,44.2,38.2,27.0,43.7,36.1,23.9,98,92,79,30.33,30.10,12,1,16,0.06
2013-11-23,27.4,23.3,16.5,24.3,17.2,9.1,94,78,55,30.50,30.24,17,3,17,0.00
2013-11-24,23.1,17.4,12.9,15.1,10.8,8.5,90,76,57,30.59,30.41,13,2,13,0.00
2013-11-25,31.0,24.7,18.4,25.8,16.1,9.3,89,70,54,30.41,30.07,13,3,14,0.00
2013-11-26,32.9,30.3,28.1,28.2,27.0,24.5,93,87,82,30.09,29.92,12,1,12,0.00
2013-11-27,28.0,22.5,17.4,24.2,15.2,10.2,89,73,59,30.18,29.90,17,2,17,0.00
2013-11-28,26.9,20.6,14.4,21.1,16.0,10.5,91,82,70,30.42,30.18,5,0,0,0.00
2013-11-29,33.1,20.4,8.9,23.4,16.0,6.6,95,84,56,30.67,30.42,4,0,0,0.00
2013-11-30,43.7,32.4,23.0,29.7,25.8,21.0,93,77,57,30.56,30.08,9,1,0,0.01
2013-12-1,42.2,34.0,26.8,34.8,30.3,24.4,94,86,74,30.08,29.98,8,0,0,0.00
2013-12-2,38.5,31.3,23.0,30.4,26.0,20.5,93,82,55,29.98,29.87,5,0,0,0.00
2013-12-3,36.9,31.9,22.2,35.6,29.8,20.2,95,92,86,29.91,29.83,5,0,0,0.02
2013-12-4,53.7,44.8,36.9,51.3,42.9,35.6,98,93,87,29.89,29.59,7,1,0,0.01
2013-12-5,57.5,42.0,29.4,54.6,35.4,21.8,93,77,65,30.11,29.57,18,4,20,0.00
2013-12-6,29.3,24.9,18.4,22.5,17.6,12.4,77,73,68,30.39,30.08,10,2,15,0.00
2013-12-7,24.0,18.5,10.6,13.0,9.9,7.0,85,69,55,30.62,30.39,14,2,14,0.00
2013-12-8,28.0,18.4,9.9,26.2,13.8,6.7,93,82,65,30.59,29.99,11,0,0,0.00
2013-12-9,28.7,25.7,19.4,27.5,21.7,13.5,95,85,73,30.07,29.87,16,4,20,0.00
2013-12-10,21.4,17.1,9.4,17.5,9.9,2.8,90,73,49,30.18,29.94,19,4,19,0.00
2013-12-11,22.7,16.5,5.8,16.9,10.9,0.9,88,78,66,30.45,30.17,12,3,13,0.00
2013-12-12,19.5,11.9,-0.1,14.0,5.8,-2.9,90,77,48,30.45,30.18,14,3,16,0.00
2013-12-13,26.5,23.2,19.5,20.0,18.1,13.4,85,81,74,30.29,30.14,10,1,12,0.00
2013-12-14,20.9,19.5,17.6,18.7,16.3,12.0,92,87,75,30.28,29.81,7,0,0,0.00
2013-12-15,23.8,18.3,11.2,21.6,14.6,6.8,93,85,73,30.02,29.79,15,3,16,0.00
2013-12-16,24.4,12.5,1.1,12.7,7.0,-1.9,92,79,56,30.18,30.01,6,0,0,0.11
2013-12-17,27.2,21.1,11.8,24.0,18.4,9.2,94,89,81,30.01,29.87,9,1,0,0.00
2013-12-18,30.1,25.3,20.7,24.6,21.0,15.2,95,84,69,30.09,29.88,12,2,12,0.00
2013-12-19,39.8,31.0,20.1,34.2,26.5,17.5,94,83,69,29.98,29.84,7,0,0,0.17
2013-12-20,35.5,33.5,32.6,34.7,32.6,31.2,97,97,93,29.91,29.71,3,0,0,0.50
2013-12-21,33.6,32.7,32.2,33.0,31.9,31.2,98,97,96,29.85,29.63,6,0,0,0.65
2013-12-22,36.0,33.0,30.5,34.1,32.0,29.5,97,96,91,29.94,29.52,10,1,0,0.34
2013-12-23,30.5,26.6,19.8,29.5,23.2,13.0,96,87,74,30.28,29.94,12,3,13,0.00
2013-12-24,19.8,12.4,2.7,13.4,7.5,0.0,90,81,67,30.54,30.27,12,2,12,0.00
2013-12-25,23.3,17.0,3.6,21.6,14.2,0.9,93,88,82,30.51,30.11,8,1,0,0.00
2013-12-26,26.0,24.3,22.7,24.3,20.5,14.9,94,86,71,30.27,30.02,18,2,18,0.00
2013-12-27,38.2,31.7,23.7,31.7,28.0,21.2,95,86,75,30.30,30.02,10,1,0,0.11
2013-12-28,48.4,39.7,30.3,35.6,32.7,27.5,91,76,61,30.09,29.86,8,2,13,0.01
2013-12-29,41.4,33.6,19.4,32.7,27.8,14.3,92,79,69,29.98,29.66,9,2,13,0.00
2013-12-30,19.3,17.1,14.3,14.4,9.1,5.0,81,70,63,30.25,29.98,6,2,0,0.00
2013-12-31,18.5,15.7,12.6,14.3,10.2,5.4,88,79,67,30.33,30.05,13,3,14,0.00
2014-1-1,14.8,12.5,10.4,11.9,8.0,3.5,89,82,69,30.40,30.24,4,0,0,0.00
2014-1-2,14.8,11.0,1.0,12.0,7.0,-4.1,89,84,75,30.28,30.09,9,1,12,0.00